Temperature
17 17 17 18 15 12 14 15 15 15 16 16 16 16 15 15 15 16 16 16 16 16 15 15 15 15 14 14 14 14 15 15 15 15 15 15 15 15 15 15 14 14 15 14 14 14 14 14 14
16 17 17 17 13 13 14 15 15 15 16 16 16 15 15 14 15 15 15 15 16 15 15 15 15 14 14 14 14 14 14 14 14 14 14 14 14 14 14 14 14 14 14 14 14 14 14 14 14
16 17 17 12 12 13 15 15 15 15 16 16 15 15 14 14 15 15 15 15 15 15 15 15 15 14 14 14 14 14 14 14 14 14 14 14 14 14 14 14 14 14 14 14 14 14 14 14 14
16 16 15 12 13 13 14 14 14 14 15 15 15 14 14 14 14 15 15 15 15 15 15 15 14 14 14 14 14 14 14 14 14 14 14 14 14 14 14 14 14 14 14 14 14 14 14 14 14
16 16 12 11 13 13 13 14 14 14 14 14 14 13 13 14 14 15 15 15 15 14 14 14 14 14 14 14 14 14 14 14 14 14 14 14 14 14 14 14 14 14 13 13 14 14 14 13 13
16 12 11 12 12 13 13 14 14 13 13 14 14 13 13 14 14 14 14 14 14 14 14 14 14 14 14 14 14 14 14 14 14 14 13 13 13 14 14 13 13 13 13 13 13 13 13 13 13
14 10 11 12 12 13 13 14 13 13 13 13 14 13 13 13 14 14 14 14 14 14 14 14 14 14 14 14 14 13 14 13 13 13 13 13 13 13 13 13 13 13 13 13 13 13 13 13 13
14 10 11 11 12 13 13 13 13 13 13 13 13 13 12 13 13 14 13 13 14 13 13 13 13 13 13 13 13 13 13 13 13 13 13 13 13 13 13 13 13 13 13 13 13 13 13 13 12
14 10 10 11 11 12 12 12 13 13 13 13 13 13 13 13 13 13 13 13 13 13 13 13 13 13 13 13 13 13 13 13 13 13 13 13 13 13 13 13 13 13 13 13 13 13 12 12 12
12 10 11 11 11 11 12 12 12 12 11 11 12 12 12 13 13 13 13 13 13 13 13 13 13 13 13 13 13 13 13 13 13 13 13 13 12 12 12 12 12 12 12 12 12 12 12 12 12
11 10 11 11 12 12 11 11 11 11 11 11 11 12 12 12 12 13 13 13 13 13 13 13 13 13 13 13 12 13 13 12 12 12 12 12 12 12 12 12 12 12 12 12 12 12 12 12 11
10 10 11 11 11 11 11 11 11 11 11 11 12 12 12 12 12 12 12 13 13 13 13 13 13 13 12 12 12 12 12 12 12 12 12 12 12 12 12 12 12 12 12 12 11 11 11 11 11
9 9 10 11 11 11 11 10 10 10 11 11 11 11 11 12 11 12 12 12 12 12 12 12 12 12 12 12 12 12 12 12 12 12 12 12 12 12 12 11 11 11 11 11 11 11 11 11 11
9 9 9 10 10 10 10 9 9 10 11 11 11 11 11 11 11 11 11 12 12 12 12 12 12 12 12 12 12 12 12 11 11 12 11 11 11 11 11 11 11 11 11 11 11 11 11 10 10
10 9 9 9 9 10 10 9 8 10 10 10 10 11 10 10 11 11 11 11 11 11 11 11 12 11 11 11 11 11 11 11 11 11 11 11 11 11 11 11 11 11 11 10 10 10 10 10 10
9 8 8 9 9 9 9 9 9 9 9 9 9 10 10 10 10 10 11 11 11 11 11 11 11 11 11 11 11 11 11 11 11 11 11 11 11 11 11 11 10 10 10 10 10 10 10 10 10
7 7 8 8 8 8 8 8 8 8 8 8 8 9 9 9 10 10 10 10 10 11 11 11 11 11 11 11 10 11 10 11 10 10 10 10 10 10 10 10 10 10 10 10 10 10 9 9 9
7 7 7 7 7 7 7 7 7 7 7 7 7 8 8 9 9 9 9 10 10 10 10 10 10 10 10 10 10 10 10 10 10 10 10 10 10 10 10 10 10 10 9 9 9 9 9 9 9
7 7 6 7 7 7 6 6 6 7 6 6 7 7 7 8 9 9 9 9 9 10 10 10 10 10 10 10 10 10 10 10 9 9 9 9 9 9 9 9 9 9 9 9 9 9 8 8 8
7 6 6 6 7 6 6 6 6 5 5 6 6 7 7 7 8 8 8 8 9 9 9 9 9 9 9 9 9 9 9 9 9 9 9 9 9 9 9 9 9 9 9 8 8 8 8 8 7
6 6 6 6 6 6 6 6 6 6 5 6 6 7 7 7 7 8 8 8 8 8 8 9 9 9 9 9 8 8 8 8 8 9 9 8 8 8 8 8 8 8 8 8 8 8 7 7 7
6 6 6 6 5 4 5 5 6 5 5 4 5 6 6 6 7 7 7 8 8 8 8 8 8 8 8 8 8 8 8 8 8 8 8 8 8 8 8 8 7 7 7 7 7 7 7 6 6
5 5 5 5 4 4 4 4 5 5 5 5 5 5 6 6 6 7 7 7 7 7 7 7 7 7 7 8 8 7 7 7 7 7 7 7 7 7 7 7 7 7 7 7 7 6 6 6 6
5 4 4 3 3 4 4 4 5 4 5 5 5 5 6 6 6 6 6 6 6 6 7 7 7 7 7 7 7 7 7 7 7 7 7 7 7 6 6 6 6 6 6 6 6 6 6 6 5
5 4 3 3 2 3 3 3 4 5 4 4 4 5 5 5 5 5 5 6 6 6 6 6 6 6 6 6 6 6 6 6 6 6 6 6 6 6 6 6 6 6 6 6 5 5 5 5 5
4 4 4 4 3 3 3 3 4 4 4 4 4 5 5 5 5 5 5 5 5 5 5 5 6 6 6 6 6 6 6 5 6 6 6 5 5 5 5 5 5 5 5 5 5 5 5 5 4
4 3 3 2 1 2 3 2 3 4 4 3 4 4 4 5 5 4 4 5 5 5 5 5 5 5 5 5 5 5 5 5 5 5 5 5 5 5 5 5 5 5 5 4 4 4 4 4 4
4 2 2 2 3 3 3 3 4 4 4 3 2 3 4 4 4 4 4 4 4 4 4 4 4 4 4 4 4 4 4 4 4 4 4 4 4 4 4 4 4 4 4 4 4 4 3 3 3
2 2 2 1 1 2 3 4 4 4 4 3 2 3 4 4 4 4 4 4 4 4 4 4 4 4 4 3 3 3 3 3 3 3 4 4 3 3 3 4 4 3 3 3 3 3 3 3 3
2 2 1 2 1 0 1 3 4 3 3 3 3 3 4 4 4 4 3 3 3 3 3 3 3 3 3 3 3 3 2 2 2 3 3 3 3 3 3 3 3 3 2 2 2 2 2 2 2
Wind_Speed
9 4 2 4 5 4 2 4 2 1 1 0 1 3 6 4 3 2 1 2 2 3 5 8 10 9 9 8 8 9 9 9 9 9 10 10 10 10 11 11 11 11 12 12 12 12 13 13 12
4 2 5 5 5 1 4 4 3 3 1 2 3 3 4 1 1 1 1 0 3 4 5 8 10 9 9 9 8 8 9 9 9 9 9 9 9 9 9 10 10 10 11 11 12 12 12 12 11
2 4 5 5 4 5 4 2 3 2 1 1 2 3 2 1 1 1 1 1 3 4 5 7 10 10 10 9 9 8 8 8 8 8 8 8 9 9 9 9 9 10 10 11 10 11 11 11 10
3 5 5 4 3 4 4 2 1 2 2 3 3 3 1 2 1 1 1 3 5 4 5 7 9 10 9 9 8 8 8 8 8 8 8 8 8 8 9 9 9 10 10 9 9 10 10 10 10
4 5 4 1 3 3 3 3 1 1 1 2 2 3 1 4 3 3 4 4 5 4 5 6 9 9 9 9 8 8 8 8 8 8 8 8 8 8 8 9 9 9 9 9 9 10 9 9 9
5 5 3 3 3 3 3 3 1 1 1 2 2 3 0 2 3 3 4 4 5 5 5 6 7 8 8 7 7 7 8 7 7 8 7 8 8 8 8 8 8 9 9 9 9 9 9 9 9
4 4 4 4 3 3 3 2 1 1 1 1 1 3 1 2 2 3 4 5 5 6 6 5 5 6 6 7 7 6 7 7 7 7 7 7 7 8 8 8 8 8 8 8 8 8 8 8 9
4 5 3 3 4 4 2 2 1 1 1 1 2 3 2 1 2 5 5 5 5 5 5 5 6 6 6 6 6 6 6 7 7 6 7 7 7 7 8 8 7 7 7 7 7 7 8 8 8
4 4 3 5 5 3 1 2 3 2 2 2 2 0 0 4 5 6 5 4 3 3 3 4 4 5 5 6 5 6 6 7 7 6 6 7 6 7 7 7 7 6 6 6 6 6 7 7 7
4 3 5 3 3 2 1 1 1 2 3 2 3 3 3 5 5 6 5 4 3 2 1 2 3 3 4 4 5 5 5 6 6 6 6 6 6 6 6 6 6 6 6 6 5 6 6 6 6
3 4 2 1 1 2 1 1 1 2 0 2 2 1 3 4 4 4 4 4 3 2 1 1 1 2 3 3 4 4 5 5 5 5 6 6 6 5 5 5 4 5 5 5 5 5 5 5 4
2 1 1 1 1 1 1 1 1 1 2 2 2 3 4 4 4 4 4 3 2 2 1 1 1 2 2 3 4 4 4 4 4 4 6 6 4 4 3 4 3 4 4 4 5 4 4 4 4
2 1 1 1 2 1 1 0 1 2 3 2 2 3 3 3 3 2 2 2 2 2 2 1 2 2 2 3 3 3 3 3 4 4 4 5 4 3 3 3 3 3 4 3 3 3 3 3 3
2 1 1 2 2 1 1 2 1 4 2 2 2 1 2 2 2 1 1 2 3 3 2 2 2 2 3 2 2 3 3 3 4 4 4 4 4 4 3 3 2 2 2 2 3 2 2 2 2
1 2 3 2 1 1 1 4 4 3 1 1 1 1 1 1 1 2 3 2 2 2 2 2 3 3 3 3 3 3 3 4 3 3 4 3 4 4 3 2 2 2 2 3 3 3 3 2 2
3 2 2 3 1 1 1 7 4 1 0 2 2 1 1 1 1 1 1 1 1 2 2 2 2 3 3 3 3 3 4 4 4 3 3 3 3 3 3 2 1 2 3 2 2 1 1 1 1
3 1 3 4 1 1 2 7 4 2 1 3 3 3 2 2 2 2 1 1 1 2 2 2 3 3 3 3 3 4 4 4 4 4 3 3 4 4 4 2 2 3 3 2 1 1 1 1 1
4 3 3 4 2 1 4 8 7 3 3 4 4 4 3 3 3 2 1 1 1 1 2 2 3 3 3 3 3 3 3 3 4 4 3 3 3 4 4 2 2 3 2 2 1 1 1 1 1
4 3 4 5 2 2 6 10 9 5 4 5 5 4 4 4 3 1 1 2 2 2 2 2 2 2 3 2 1 1 1 1 1 3 3 3 3 3 3 2 2 2 2 1 1 1 2 1 1
3 3 3 4 2 2 6 11 9 5 5 6 7 6 6 4 2 2 2 1 1 1 1 1 2 2 1 1 1 1 1 1 0 2 3 3 3 2 3 3 2 1 1 2 2 2 1 1 1
3 5 5 4 3 2 4 8 6 4 3 4 5 6 5 5 4 2 1 1 0 0 1 1 1 2 1 2 2 2 2 2 1 1 1 3 3 3 3 2 2 1 1 1 1 2 2 1 0
5 4 4 3 1 3 0 6 8 4 4 5 6 5 5 4 4 3 2 1 1 2 1 1 1 2 2 2 3 3 2 2 1 0 0 2 3 3 3 2 2 1 1 0 1 1 1 2 1
4 1 1 2 2 3 2 4 9 3 5 7 6 6 5 4 4 3 3 3 2 1 1 1 1 2 2 2 3 3 2 1 1 1 1 1 2 3 2 2 2 1 1 0 0 1 1 2 2
3 3 3 3 2 4 6 6 8 4 6 5 4 4 4 3 3 2 2 1 0 1 1 1 2 2 2 2 2 2 2 2 2 1 1 1 1 1 2 3 2 1 1 1 1 1 1 1 2
3 4 2 3 2 6 3 5 9 7 5 4 5 4 4 3 2 2 1 1 1 1 1 1 2 1 1 2 1 2 2 2 2 1 1 0 0 1 1 1 1 1 1 1 1 1 1 1 1
5 6 6 5 5 5 3 8 8 5 3 3 3 3 2 2 2 3 3 2 2 2 1 1 2 1 1 1 1 1 1 1 1 1 1 1 1 1 1 1 1 1 2 1 2 1 1 1 1
4 4 4 4 1 4 6 7 8 3 3 2 2 1 2 2 3 3 2 2 2 2 2 2 2 1 0 0 0 1 0 1 1 1 1 0 0 1 1 0 0 1 1 1 1 1 0 0 0
3 5 4 4 3 5 6 6 5 5 5 3 3 3 4 3 3 3 2 2 2 1 1 1 2 1 1 1 0 0 0 0 1 1 1 1 1 1 1 0 0 0 0 1 1 1 1 0 0
4 3 4 3 3 4 5 7 5 6 5 6 6 5 4 4 3 3 2 2 1 1 1 1 1 1 1 1 1 0 0 0 1 1 1 1 0 0 0 0 0 0 0 0 0 0 1 0 0
4 5 6 5 5 4 4 9 5 5 5 5 5 5 4 3 3 3 2 2 2 1 1 1 1 1 1 1 1 1 0 1 1 0 0 1 0 0 0 0 0 0 0 0 0 0 1 1 1
Wind_Direction
339 352 58 57 57 54 235 251 235 287 247 30 98 122 137 143 160 188 338 111 103 135 163 165 156 150 140 131 126 125 120 117 116 115 114 110 105 102 99 96 93 91 89 89 88 86 84 82 81
334 8 53 61 96 134 263 254 235 242 201 115 61 84 93 94 12 54 9 330 111 134 150 155 153 148 140 133 126 128 126 121 116 115 116 113 109 106 103 100 97 93 90 88 86 85 85 83 81
356 44 79 82 126 182 224 240 226 307 10 108 79 58 105 109 355 223 282 128 99 110 128 140 145 145 142 138 133 130 132 125 118 115 114 114 110 108 106 102 101 98 94 91 87 85 84 81 80
64 47 58 85 190 223 230 271 295 350 29 46 101 82 66 15 289 240 110 104 104 95 111 135 140 144 142 141 137 133 137 134 126 118 115 114 112 110 108 103 101 99 97 95 91 87 83 82 81
60 76 73 65 241 263 271 285 301 24 28 24 87 112 35 357 24 88 103 99 106 87 97 133 137 136 142 144 140 135 132 136 131 124 117 114 114 113 111 107 102 98 96 93 90 87 85 82 79
60 72 108 209 243 275 283 298 333 54 52 45 85 116 46 10 60 87 95 95 93 92 86 103 130 133 131 134 138 137 130 133 136 131 124 117 114 113 110 110 105 102 98 94 91 87 85 80 77
106 108 163 189 217 267 283 328 112 130 105 242 148 122 315 349 53 85 89 89 82 81 77 78 90 107 120 125 120 128 130 126 128 128 122 116 113 112 110 108 104 103 101 97 92 88 86 81 77
117 114 143 188 193 243 295 2 53 80 184 8 112 141 211 237 107 90 87 83 80 72 69 71 74 86 95 103 112 111 127 125 119 117 119 115 112 108 105 103 102 100 102 104 96 90 86 82 77
86 92 190 205 193 229 336 28 2 6 95 46 22 19 254 121 113 104 96 85 80 70 55 65 76 79 91 102 104 106 112 118 114 107 112 110 105 101 98 97 100 100 98 103 101 93 89 86 79
85 159 215 209 187 190 348 35 354 47 41 25 10 19 76 115 129 133 138 151 158 160 117 66 82 84 92 106 104 100 101 102 109 111 110 107 104 102 98 93 90 89 86 88 95 90 86 83 79
116 178 213 262 191 157 105 25 14 119 293 243 243 233 134 133 146 156 165 167 180 181 171 106 97 87 96 101 105 100 97 95 96 108 113 110 102 96 89 84 77 75 73 71 78 77 76 79 78
124 237 223 278 10 77 125 73 19 172 240 282 225 173 156 164 178 183 182 184 163 151 165 159 101 95 90 103 106 103 97 96 97 104 119 116 108 99 94 85 77 76 73 72 72 73 71 69 66
163 239 348 19 47 65 83 73 235 275 292 345 74 117 164 185 195 197 181 176 166 173 184 160 116 118 107 104 104 101 99 102 103 103 110 124 123 119 106 95 85 80 77 81 78 75 68 56 49
164 141 326 341 8 20 105 295 229 266 321 15 70 161 198 182 181 166 167 196 196 193 190 162 126 111 103 108 106 102 98 99 95 93 94 115 123 117 109 102 91 83 87 91 93 88 81 61 55
106 55 351 331 338 320 54 302 243 257 334 324 293 236 194 205 172 197 210 205 204 194 172 154 138 110 109 105 97 92 93 99 92 88 89 101 108 121 121 116 101 86 96 98 88 77 79 69 57
63 71 283 306 326 328 127 263 267 279 215 278 277 278 285 289 245 245 255 242 198 154 142 144 129 120 114 103 93 85 80 84 78 77 80 88 93 112 119 114 105 98 98 97 101 84 81 60 48
43 217 245 295 321 21 191 257 280 306 231 256 263 266 273 307 321 308 266 237 179 156 143 130 113 118 114 104 90 83 79 74 71 69 68 76 91 95 101 103 98 101 95 85 97 82 109 101 52
216 214 234 255 295 304 256 266 284 286 244 246 254 259 259 264 279 299 340 15 74 85 104 111 100 99 103 99 87 75 67 58 56 61 59 68 80 93 94 91 81 94 91 74 74 104 76 101 94
177 185 233 255 282 260 257 271 277 271 257 255 250 248 249 257 289 345 22 36 58 61 80 99 103 99 111 118 127 118 112 54 40 42 50 60 72 91 97 80 70 87 113 119 106 100 81 50 45
170 218 248 282 299 253 279 278 271 251 238 237 232 236 239 255 302 340 4 29 58 86 86 107 125 127 130 143 158 142 141 128 98 38 43 48 61 79 92 90 91 86 101 99 98 101 101 53 45
221 212 224 246 323 326 312 294 267 258 238 247 237 230 229 221 230 245 266 272 235 173 183 166 158 144 128 105 103 94 82 66 53 28 16 19 43 64 69 75 84 76 81 137 146 148 146 169 324
242 228 214 213 243 284 312 287 281 264 274 259 247 236 232 235 229 230 234 260 246 237 214 154 147 137 128 121 130 135 150 176 206 202 343 12 33 49 67 72 76 78 75 65 200 152 161 164 193
209 172 178 188 187 291 241 234 280 291 269 260 245 239 240 233 223 223 227 228 232 216 172 151 112 109 110 116 134 131 137 165 140 96 79 34 19 26 44 57 70 74 69 31 286 165 163 176 187
151 75 50 55 85 260 227 206 273 242 231 256 258 247 245 239 232 230 234 198 194 92 108 118 115 107 100 108 115 132 143 145 127 106 94 33 8 12 24 34 38 48 52 8 288 198 176 184 182
114 98 28 345 323 249 222 223 252 249 235 237 256 265 260 238 216 213 211 182 168 132 135 128 125 113 107 105 114 136 160 161 168 175 179 165 345 338 332 2 3 22 19 15 10 186 189 185 175
181 155 167 209 237 278 246 236 254 260 265 264 266 262 274 255 221 211 210 202 203 197 180 158 144 153 133 122 133 127 150 163 176 172 173 194 228 267 294 297 342 15 24 28 42 358 227 174 189
152 184 164 140 198 274 259 274 295 261 274 297 305 309 287 270 244 228 220 210 200 193 189 176 158 152 145 136 107 103 153 158 152 134 122 81 329 304 328 348 33 19 36 45 67 6 270 162 202
159 145 112 141 196 258 276 266 253 257 259 277 287 286 285 288 270 246 221 212 211 195 157 132 150 162 147 119 141 121 201 155 137 124 118 90 22 360 335 61 135 42 69 76 102 11 328 144 257
149 156 154 156 182 200 268 268 237 232 236 242 255 263 268 270 257 237 226 216 186 150 124 122 127 133 129 135 152 120 49 81 89 114 129 123 89 8 342 352 120 112 72 94 108 357 355 261 286
193 189 164 181 226 208 233 271 280 244 255 255 266 272 276 270 251 224 207 196 187 183 168 169 184 196 213 188 154 162 139 101 93 73 17 93 87 15 353 62 94 85 43 31 153 264 340 288 244
Height
1502 1503 1504 1506 1510 1522 1523 1517 1513 1512 1511 1510 1510 1510 1511 1514 1517 1521 1517 1516 1517 1519 1521 1523 1525 1526 1527 1528 1529 1530 1531 1531 1532 1532 1533 1533 1534 1534 1534 1534 1535 1535 1535 1535 1536 1536 1536 1536 1537
1502 1503 1506 1506 1517 1528 1524 1515 1513 1511 1510 1510 1510 1510 1511 1512 1514 1514 1514 1516 1518 1519 1521 1523 1525 1526 1528 1529 1530 1530 1531 1532 1532 1533 1533 1534 1534 1535 1535 1535 1536 1536 1536 1537 1537 1537 1537 1537 1538
1502 1504 1506 1510 1521 1524 1518 1512 1511 1510 1509 1509 1510 1511 1512 1513 1514 1514 1515 1516 1518 1520 1522 1523 1525 1526 1528 1529 1530 1531 1531 1532 1533 1533 1534 1534 1535 1535 1536 1536 1536 1537 1537 1537 1538 1538 1538 1538 1539
1503 1505 1507 1515 1519 1517 1513 1511 1510 1509 1509 1510 1510 1512 1512 1514 1514 1515 1516 1517 1519 1520 1522 1523 1525 1526 1528 1529 1530 1531 1532 1532 1533 1533 1534 1534 1535 1535 1536 1536 1537 1537 1538 1538 1538 1539 1539 1539 1539
1503 1504 1512 1520 1518 1514 1512 1510 1510 1510 1510 1511 1511 1512 1513 1514 1514 1515 1516 1518 1519 1520 1522 1523 1525 1526 1527 1529 1530 1531 1532 1532 1533 1534 1534 1534 1535 1535 1536 1537 1537 1537 1538 1538 1539 1539 1539 1539 1540
1503 1506 1519 1522 1517 1513 1511 1510 1510 1510 1511 1511 1511 1512 1513 1514 1514 1516 1517 1518 1520 1521 1522 1523 1524 1526 1527 1528 1529 1530 1531 1532 1533 1533 1534 1534 1534 1535 1536 1536 1536 1537 1538 1538 1539 1539 1539 1539 1540
1504 1510 1517 1517 1517 1514 1511 1510 1510 1510 1511 1512 1512 1513 1513 1514 1515 1516 1517 1518 1520 1521 1522 1523 1524 1525 1526 1527 1528 1530 1531 1531 1532 1533 1533 1534 1534 1535 1535 1536 1536 1537 1537 1538 1538 1539 1539 1539 1540
1503 1510 1516 1518 1516 1513 1510 1510 1510 1510 1511 1512 1512 1513 1513 1514 1515 1516 1517 1518 1519 1521 1522 1523 1524 1525 1526 1527 1528 1529 1530 1531 1532 1532 1533 1533 1534 1534 1535 1535 1536 1536 1537 1537 1538 1538 1539 1539 1539
1504 1513 1517 1515 1514 1512 1510 1510 1510 1511 1511 1511 1512 1512 1513 1513 1514 1515 1516 1518 1519 1520 1521 1522 1523 1524 1525 1526 1527 1528 1529 1530 1530 1531 1532 1533 1533 1534 1534 1535 1535 1536 1536 1537 1537 1537 1538 1538 1539
1505 1514 1512 1510 1510 1510 1510 1510 1510 1511 1511 1511 1511 1512 1512 1512 1513 1514 1515 1516 1517 1518 1519 1521 1522 1523 1524 1525 1526 1527 1528 1528 1529 1530 1531 1532 1532 1533 1533 1534 1534 1535 1535 1536 1536 1537 1537 1537 1538
1506 1510 1509 1509 1509 1509 1509 1510 1511 1511 1511 1511 1511 1510 1511 1512 1512 1513 1514 1515 1516 1517 1518 1519 1521 1522 1523 1524 1525 1526 1526 1527 1528 1529 1530 1531 1531 1532 1532 1533 1533 1534 1534 1535 1535 1535 1536 1536 1537
1507 1508 1508 1508 1508 1509 1509 1510 1511 1511 1511 1511 1511 1510 1510 1510 1511 1512 1513 1514 1515 1516 1517 1519 1519 1521 1522 1523 1524 1525 1525 1526 1526 1527 1528 1529 1530 1531 1531 1532 1532 1533 1533 1534 1534 1534 1535 1535 1535
1507 1508 1508 1508 1508 1509 1509 1510 1510 1510 1510 1510 1510 1510 1509 1510 1510 1512 1513 1513 1514 1515 1516 1517 1518 1519 1521 1522 1523 1523 1524 1524 1525 1526 1527 1528 1529 1529 1530 1530 1531 1532 1532 1532 1532 1533 1533 1533 1534
1507 1508 1508 1509 1508 1508 1509 1509 1510 1508 1509 1509 1508 1508 1509 1509 1509 1510 1511 1512 1512 1513 1514 1516 1517 1518 1519 1520 1521 1522 1522 1523 1523 1524 1525 1526 1527 1528 1528 1529 1530 1530 1530 1531 1531 1531 1531 1531 1532
1507 1509 1509 1509 1509 1509 1509 1510 1509 1508 1508 1507 1507 1507 1507 1508 1508 1509 1509 1510 1511 1512 1513 1514 1515 1516 1517 1518 1519 1520 1521 1521 1522 1522 1523 1524 1525 1526 1527 1527 1528 1528 1528 1529 1529 1529 1529 1529 1530
1508 1511 1513 1510 1510 1509 1513 1511 1507 1507 1507 1506 1506 1506 1506 1507 1507 1508 1508 1509 1510 1510 1511 1512 1513 1514 1515 1516 1517 1518 1519 1520 1520 1521 1522 1522 1523 1524 1525 1525 1526 1526 1526 1527 1527 1527 1527 1527 1527
1513 1516 1515 1513 1510 1510 1512 1510 1506 1506 1506 1505 1505 1504 1505 1505 1505 1506 1507 1508 1508 1509 1509 1510 1511 1512 1513 1514 1515 1516 1517 1518 1518 1519 1520 1520 1521 1521 1522 1523 1523 1524 1524 1524 1524 1524 1525 1525 1525
1515 1517 1516 1515 1511 1511 1512 1509 1505 1505 1504 1503 1503 1503 1503 1503 1503 1504 1505 1506 1506 1507 1508 1508 1509 1510 1511 1512 1513 1514 1515 1516 1516 1517 1517 1518 1519 1519 1520 1521 1521 1521 1522 1522 1522 1522 1522 1522 1522
1512 1515 1516 1514 1511 1512 1511 1507 1504 1503 1502 1502 1501 1501 1500 1501 1502 1502 1503 1503 1504 1505 1505 1506 1507 1508 1509 1510 1510 1511 1512 1513 1514 1515 1515 1516 1516 1517 1517 1518 1519 1519 1519 1519 1519 1519 1519 1519 1520
1512 1515 1516 1513 1511 1512 1510 1506 1500 1499 1499 1498 1498 1497 1498 1498 1499 1499 1500 1501 1502 1502 1503 1504 1505 1506 1507 1508 1508 1509 1510 1510 1511 1512 1512 1513 1513 1514 1514 1515 1516 1516 1516 1516 1516 1516 1516 1517 1517
1512 1514 1514 1514 1512 1511 1512 1504 1498 1495 1495 1494 1494 1494 1495 1495 1496 1497 1497 1498 1499 1500 1500 1501 1503 1504 1505 1505 1506 1507 1507 1508 1509 1509 1510 1510 1511 1511 1511 1512 1513 1513 1513 1513 1513 1514 1514 1514 1515
1512 1511 1512 1513 1516 1518 1515 1515 1497 1494 1493 1492 1491 1491 1491 1492 1493 1494 1495 1495 1496 1497 1498 1499 1500 1501 1502 1503 1503 1504 1504 1505 1505 1506 1507 1508 1508 1508 1509 1510 1510 1510 1510 1510 1511 1511 1511 1512 1512
1510 1510 1512 1514 1517 1520 1517 1519 1500 1494 1492 1489 1487 1487 1488 1489 1490 1491 1492 1493 1494 1495 1496 1497 1498 1499 1499 1500 1500 1501 1501 1502 1503 1504 1504 1505 1505 1506 1506 1507 1507 1507 1508 1508 1508 1508 1508 1509 1509
1509 1512 1515 1519 1521 1523 1517 1518 1502 1495 1488 1485 1484 1484 1485 1486 1487 1488 1490 1491 1492 1493 1494 1495 1495 1496 1497 1497 1498 1498 1499 1499 1500 1500 1501 1502 1502 1503 1503 1504 1504 1504 1505 1505 1505 1505 1505 1505 1506
1509 1516 1526 1526 1531 1522 1514 1513 1498 1487 1484 1484 1483 1483 1483 1484 1485 1485 1486 1487 1489 1490 1491 1492 1493 1493 1494 1494 1495 1495 1496 1496 1497 1497 1498 1498 1499 1499 1500 1501 1501 1501 1501 1502 1502 1502 1502 1502 1503
1509 1511 1522 1525 1525 1519 1514 1510 1493 1484 1482 1481 1481 1481 1481 1482 1483 1483 1484 1486 1487 1488 1489 1489 1490 1490 1491 1492 1492 1493 1493 1493 1494 1494 1495 1495 1496 1496 1497 1497 1498 1498 1498 1499 1499 1498 1499 1499 1499
1509 1512 1513 1522 1527 1525 1512 1503 1491 1482 1480 1480 1480 1479 1479 1480 1481 1481 1482 1483 1485 1485 1486 1487 1487 1488 1489 1489 1490 1490 1490 1490 1491 1491 1492 1492 1493 1493 1494 1494 1494 1495 1495 1495 1495 1495 1495 1495 1496
1507 1510 1518 1522 1522 1518 1509 1504 1492 1482 1480 1480 1479 1478 1478 1479 1479 1480 1481 1481 1482 1483 1484 1485 1485 1486 1487 1487 1487 1487 1487 1487 1488 1488 1489 1489 1489 1490 1490 1491 1491 1491 1492 1492 1492 1492 1492 1492 1492
1509 1512 1513 1519 1520 1519 1512 1496 1481 1479 1477 1478 1478 1477 1477 1477 1478 1478 1479 1480 1480 1481 1482 1482 1483 1484 1484 1484 1484 1484 1484 1484 1484 1485 1485 1486 1486 1487 1487 1487 1488 1488 1488 1488 1488 1488 1488 1488 1488
1505 1506 1510 1515 1518 1521 1518 1496 1477 1477 1475 1475 1476 1476 1476 1476 1476 1477 1477 1477 1478 1478 1479 1480 1480 1481 1481 1481 1481 1481 1481 1481 1481 1482 1483 1483 1483 1484 1484 1484 1484 1484 1484 1485 1485 1485 1485 1484 1485